UHHHUHBB

Guest
Details From UHHH - NOVY
To UHBB - IGNATYEVO
Flight Number -
Tags decoded
Created
Modified
Stats Distance 325 nm / 603 km
Max Altitude 0 ft / 0 m
Waypoints 4
Social Downloads 1
Likes 0
Share VATSIM

Download

Looking for another format? Having issues loading an existing format? Contact us
Advertisement - Login to hide

Notes

Requested: UHHH MR B150 AMERA UHBB Unmatched points: B150

Route

UHHH MR AMERA UHBB

ID Type Via Altitude Latitude Longitude Leg Dist Tot Dist Heading (true) Name
O UHHH APT - 0 ft / 0 m 48.52804˚ 135.18836˚ - 0 nm - NOVY
MR NDB - 0 ft / 0 m 48.56028˚ 134.58194˚ 24 nm 24 nm 275° / 274° VOLOCHAYEVKA NDB
AMERA FIX - 0 ft / 0 m 50.22194˚ 128.14583˚ 270 nm 294 nm 294° / 289° -
O UHBB APT - 0 ft / 0 m 50.42539˚ 127.41249˚ 30 nm 325 nm 294° / 293° IGNATYEVO

Altitude Profile

Advertisement - Login to hide

Weather


0- 5 10 15 20 25 30 35+ Temperature / ° C

Clouds and Precipitation
Forecast for 2018-05-24 18:00 UTC. Updated 4 hours ago

Ground ~20,000 ft ~40,000 ft Winds

UHHH

Details ICAO UHHH (KHV)
Name NOVY
Region Russia
Timezone Asia/Vladivostok (UTC+10.0)
Stats Elevation 244 ft / 74 m (AMSL)
Location 48.528043° 135.188359°
Runways 2
Magnetic Variation 11.932° W

METAR

UHHH 242130Z 02007MPS 9999 BKN013 OVC021CB 08/07 Q1001 R05R/090060 NOSIG RMK QFE745/0993

Decode

TAF

TAF UHHH 241946Z 2421/2603 03005MPS 9999 SCT020CB TEMPO 2421/2423 SCT006 FM250000 03007MPS 9999 SCT020CB TEMPO 2500/2509 05008G13MPS 3000 -SHRA SCT006 BKN020CB

Decode

Departure Runways

ID Width Length Bearing (true) Bearing (mag) Surface Threshold Offset Overrun Length
05L 148 ft / 45 m 11,458 ft / 3,492 m 42.08° 54.01° Asphalt 0 ft / 0 m 247 ft / 75 m
05R 197 ft / 60 m 13,105 ft / 3,995 m 42.10° 54.03° Concrete 0 ft / 0 m 246 ft / 75 m
23L 197 ft / 60 m 13,105 ft / 3,995 m 222.13° 234.06° Concrete 0 ft / 0 m 247 ft / 75 m
23R 148 ft / 45 m 11,458 ft / 3,492 m 222.10° 234.03° Asphalt 0 ft / 0 m 175 ft / 53 m

UHBB

Details ICAO UHBB (BQS)
Name IGNATYEVO
Region Russia
Timezone Asia/Yakutsk (UTC+9.0)
Stats Elevation 638 ft / 194 m (AMSL)
Location 50.425395° 127.412489°
Runways 1
Magnetic Variation 12.282° W

METAR

UHBB 242130Z 02003MPS 9999 FEW033 06/05 Q1006 R36/090060 NOSIG RMK QFE737/0983

Decode

TAF

TAF UHBB 241957Z 2421/2521 27003MPS 9999 SCT030CB FM250000 35003MPS 9999 BKN020CB TEMPO 2506/2521 3000 -SHRA

Decode

Destination Runways

ID Width Length Bearing (true) Bearing (mag) Surface Threshold Offset Overrun Length
18 148 ft / 45 m 9,254 ft / 2,821 m 168.30° 180.58° Asphalt 0 ft / 0 m 145 ft / 44 m
36 148 ft / 45 m 9,254 ft / 2,821 m 348.30° 0.58° Asphalt 0 ft / 0 m 160 ft / 49 m

Approach Navaids

Runway Type Ident Frequency Range Bearing (true) Bearing (mag) Slope Elevation
36 Localiser ILZ 108.70 MHz 18 nm / 33 km 348.31° 0.59° - 638 ft / 194 m (AMSL)
36 Glidescope ILZ 108.70 MHz 10 nm / 19 km 348.30° 0.58° 3.05° 638 ft / 194 m (AMSL)

Popular Alternatives